This is the latest recevied weather packets stored in our database for station/object KC9Q. If no packets are shown the sender has not sent any weather packets the latest 10 day(s).
| Time | Temp. | Humidity | Pressure | Rain* | Wind** | Luminosity | Snow |
|---|---|---|---|---|---|---|---|
| 1778102001 | 15° C | 61% | 1014.6 hPa | 0 mm | - | 184 W/m² | - |
| 1778101699 | 15° C | 59% | 1014.7 hPa | 0 mm | - | 168 W/m² | - |
| 1778101395 | 15° C | 61% | 1014.6 hPa | 0 mm | - | 198 W/m² | - |
| 1778101092 | 15° C | 59% | 1014.9 hPa | 0 mm | - | 101 W/m² | - |
| 1778100788 | 15° C | 64% | 1014.8 hPa | 0 mm | - | 102 W/m² | - |
| 1778100484 | 15° C | 58% | 1015.2 hPa | 0 mm | - | 151 W/m² | - |
| 1778100183 | 15° C | 59% | 1015.5 hPa | 0 mm | - | 223 W/m² | - |
| 1778099880 | 15° C | 61% | 1014.7 hPa | 0 mm | - | 221 W/m² | - |
| 1778099577 | 15° C | 64% | 1014.7 hPa | 0 mm | - | 145 W/m² | - |
| 1778099274 | 15° C | 62% | 1014.6 hPa | 0 mm | - | 204 W/m² | - |
| 1778098971 | 15° C | 63% | 1014.9 hPa | 0 mm | - | 181 W/m² | - |
| 1778098667 | 15° C | 64% | 1015.1 hPa | 0 mm | - | 167 W/m² | - |
| 1778098364 | 15° C | 64% | 1014.8 hPa | 0 mm | - | 214 W/m² | - |
| 1778098061 | 15° C | 66% | 1014.4 hPa | 0 mm | - | 151 W/m² | - |
| 1778097758 | 15° C | 64% | 1014.2 hPa | 0 mm | - | 187 W/m² | - |
| 1778097454 | 15° C | 63% | 1014.2 hPa | 0 mm | - | 269 W/m² | - |
| 1778097151 | 15° C | 63% | 1014.6 hPa | 0 mm | - | 295 W/m² | - |
| 1778096848 | 15° C | 62% | 1014.6 hPa | 0 mm | - | 380 W/m² | - |
| 1778096544 | 15° C | 64% | 1014.8 hPa | 0 mm | - | 315 W/m² | - |
| 1778096242 | 15° C | 66% | 1015 hPa | 0 mm | - | 276 W/m² | - |
| 1778095939 | 15° C | 63% | 1015.1 hPa | 0 mm | - | 127 W/m² | - |
| 1778095636 | 14.44° C | 66% | 1014.9 hPa | 0 mm | - | 163 W/m² | - |
| 1778095332 | 14.44° C | 63% | 1015.2 hPa | 0 mm | - | 168 W/m² | - |
| 1778095029 | 15° C | 64% | 1015.3 hPa | 0 mm | - | 156 W/m² | - |
| 1778094725 | 14.44° C | 65% | 1014.9 hPa | 0 mm | - | 226 W/m² | - |
* Rain latest hour (hover to see other rain measurements)
** Current wind speed in m/s (hover to see current wind gust speed)